rPlanet.dev - Failed Crafting Attempts

Use this site to make sure the recipe you are thinking about wasn't tried before!

Checkout the new rPlanet element generator by rplanet.dev! ==> craft.rplanet.dev

Burn Statistics
AETHER Burned since last invention: 414,850,000 AETHER (2.16% of total Burn!)
AETHER Burned since begin phase 3: 19,241,670,000 AETHER
Timestamp for latest invention does not update automatically.

Tip: You can paste recipes into the first slot! Try pasting earth,earth,water,water. This function is case insensitive.

Enter the four elements you plan to to combine and the website will tell you if it was tried before!
Filter the table below for certain elements.

If you like this tool please consider donating some WAX to ibotyourgame. Thank you very much! :)

Date / Time Crafting Attempts AETHER Costs Recipe Last Try
27th July 2021 20:44:49 1 5,020,000 CANABIS, SEED, SEED, SEED hpirm.wam
27th July 2021 20:35:20 55 70,000 AIR, EARTH, GARBAGE, WATER 5n1ay.wam
27th July 2021 19:26:26 1 1,240,000 EARTH, EARTH, SEED, WATER ip43m.wam
27th July 2021 18:51:15 1 3,070,000 DESERT, EARTH, PRESS, SAND o25bk.wam
27th July 2021 18:22:22 1 39,580,000 LIBRARY, LIFE, TIME, TIME t5qb2.wam
27th July 2021 16:59:33 104 40,000 AIR, AIR, AIR, FIRE xv.bg.wam
27th July 2021 16:30:58 32 40,000 EARTH, EARTH, EARTH, WATER hctee.wam
27th July 2021 16:30:29 17 40,000 AIR, AIR, AIR, EARTH hctee.wam
27th July 2021 16:29:44 98 40,000 FIRE, FIRE, WATER, WATER hctee.wam
27th July 2021 16:21:28 24 40,000 AIR, WATER, WATER, WATER gcxr2.wam
27th July 2021 16:00:59 1 5,980,000 EARTH, RAIN, SEED, TIME amauw.wam
27th July 2021 15:07:49 3 100,000 EARTH, FIRE, GARBAGE, RAIN wxruo.wam
27th July 2021 14:20:26 1 2,590,000 BOILER, HEAT, SODA, WATER q.uqy.wam
27th July 2021 13:52:41 5 160,000 ENERGY, MUD, MUD, PRESS u2dbc.wam
27th July 2021 13:42:58 1 940,000 LAVA, MNTAIN, WIND, WIND s4leo.wam
27th July 2021 13:41:51 6 100,000 AIR, ENERGY, PRESS, WATER s4leo.wam
27th July 2021 13:33:25 1 850,000 LAVA, LAVA, MNTAIN, WIND xv.bg.wam
27th July 2021 13:29:59 1 730,000 AIR, LAVA, LAVA, MNTAIN n.2rg.wam
27th July 2021 11:27:52 1 760,000 HEAT, MNTAIN, MUD, PRESS s.xr4.wam
27th July 2021 11:06:36 1 3,640,000 PRESS, PRESS, SODA, SODA pdss2.wam
27th July 2021 10:37:00 1 30,700,000 LIBRARY, LIFE, LIFE, LIFE daveeeeeelee
27th July 2021 10:29:09 74 70,000 AIR, EARTH, FIRE, GARBAGE oe2bo.wam
27th July 2021 10:25:35 1 24,100,000 ALARM, PAINTNG, PAPER, PENCIL e.lbi.wam
27th July 2021 10:25:14 1 3,820,000 CLAY, ELECTRC, ELECTRC, GRPHITE qgiuq.wam
27th July 2021 10:17:36 1 35,140,000 LIBRARY, LIFE, LIFE, TIME t5qb2.wam
27th July 2021 09:43:48 1 22,900,000 ALCOHOL, BUILDNG, ELECTRC, MUSIC hgfqq.wam
27th July 2021 09:43:46 40 40,000 AIR, AIR, EARTH, FIRE s.xr4.wam
27th July 2021 09:25:14 1 1,810,000 EARTH, ELECTRC, GRPHITE, HEAT o2abo.wam
27th July 2021 09:21:07 1 30,010,000 ALCOHOL, BUILDNG, BUILDNG, MUSIC psueg.wam
27th July 2021 08:27:19 1 100,000 EARTH, EARTH, GARBAGE, STEAM 5nab.wam
27th July 2021 07:59:13 55 40,000 AIR, EARTH, WATER, WATER i.lbi.wam
27th July 2021 07:52:44 1 42,580,000 BUILDNG, BUILDNG, MUSIC, MUSIC p4lqm.wam
27th July 2021 07:37:33 1 1,510,000 EARTH, ELECTRC, HEAT, HEAT o2abo.wam
27th July 2021 07:36:19 1 100,000 AIR, AIR, PRESS, STEAM rkhb4.wam
27th July 2021 06:59:47 94 70,000 EARTH, FIRE, GARBAGE, WATER mpurc.wam
27th July 2021 06:55:13 57 40,000 EARTH, FIRE, FIRE, WATER dhsbg.wam
27th July 2021 06:29:20 1 8,830,000 PLANT, STRING, SUN, WIRE zbgb2.wam
27th July 2021 06:15:38 5 280,000 ENERGY, MUD, MUD, PLANT qsqba.wam
27th July 2021 06:08:43 1 5,020,000 PEAT, PEAT, PEAT, SEED ivguk.wam
27th July 2021 05:51:59 3 130,000 FIRE, GARBAGE, GARBAGE, GARBAGE pqudi.wam
27th July 2021 05:19:23 2 6,520,000 CLAY, CLAY, LIMSTON, SAND .rjb.wam
27th July 2021 05:01:12 1 160,000 DUST, DUST, DUST, ENERGY budr.wam
27th July 2021 04:56:40 1 41,740,000 CALCLTR, LIBRARY, PAPER, PENCIL 1puqy.wam
27th July 2021 04:39:24 3 70,000 EARTH, FIRE, LAVA, WATER c2urm.wam
27th July 2021 04:30:13 191 40,000 AIR, AIR, FIRE, FIRE 4lara.wam
27th July 2021 04:21:56 4 100,000 AIR, AIR, MUD, MUD n5mca.wam
27th July 2021 04:18:36 8 250,000 ENERGY, PRESS, SEA, WIND lsfqw.wam
27th July 2021 03:44:10 12 100,000 EARTH, EARTH, LAVA, LAVA rpiay.wam
27th July 2021 03:22:06 1 41,260,000 BOOK, LIBRARY, LIFE, TIME e.lbi.wam
27th July 2021 02:31:18 1 21,520,000 BOOK, BUILDNG, ELECTRC, STOOL t5qb2.wam
27th July 2021 02:30:21 13 70,000 EARTH, EARTH, FIRE, GARBAGE .qxay.wam
27th July 2021 02:25:06 1 17,140,000 BOOK, BUILDNG, ELECTRC, TREE t5qb2.wam
27th July 2021 01:19:44 1 6,520,000 BATTERY, METAL, PLASTIC, SMOKE znrrw.wam
27th July 2021 01:06:31 1 6,670,000 PLANT, RAIN, SEED, STRING fikd.wam
27th July 2021 00:36:44 1 22,750,000 BOOK, BOOK, BUILDNG, ELECTRC p4lqm.wam
27th July 2021 00:30:58 1 6,640,000 EARTH, PLANT, SEED, STRING fikd.wam
27th July 2021 00:29:47 1 23,230,000 BOOK, BOOK, BUILDNG, GLASSES psueg.wam
27th July 2021 00:28:46 1 24,460,000 BOOK, BOOK, BUILDNG, CABLE p4lqm.wam
27th July 2021 00:11:07 1 26,050,000 BOOK, BOOK, BUILDNG, TIME cv4am.wam
26th July 2021 23:53:03 1 5,440,000 EARTH, HILL, SEED, WIRE 22mr2.wam
26th July 2021 23:26:45 1 6,640,000 BATTERY, PLASTIC, SMOKE, TNPLT pkuuc.wam
26th July 2021 22:25:25 56 40,000 EARTH, FIRE, FIRE, FIRE s4leo.wam
26th July 2021 21:25:42 24 70,000 FIRE, FIRE, FIRE, GARBAGE mklau.wam
26th July 2021 21:20:27 34 40,000 EARTH, EARTH, FIRE, WATER fa3qw.wam
26th July 2021 21:12:31 1 21,370,000 BOOK, BOOK, BUILDNG, DUST g2cbe.wam
26th July 2021 20:41:48 1 6,670,000 BATTERY, GLASS, METAL, PLASTIC ip43m.wam
26th July 2021 20:19:28 1 130,000 AIR, GARBAGE, GARBAGE, RAIN 234rg.wam
26th July 2021 19:33:51 3 70,000 AIR, AIR, FIRE, GARBAGE pojqw.wam
26th July 2021 19:33:35 20 40,000 EARTH, WATER, WATER, WATER pojqw.wam
26th July 2021 19:28:59 4 70,000 DUST, EARTH, FIRE, WATER pojqw.wam
26th July 2021 19:27:52 31 40,000 EARTH, FIRE, WATER, WATER pojqw.wam
26th July 2021 19:26:48 37 40,000 AIR, FIRE, FIRE, WATER pojqw.wam
26th July 2021 19:26:32 40 40,000 AIR, AIR, EARTH, WATER pojqw.wam
26th July 2021 19:25:50 4 70,000 AIR, EARTH, RAIN, WATER pojqw.wam
26th July 2021 19:23:28 48 40,000 AIR, EARTH, EARTH, FIRE pojqw.wam
26th July 2021 19:18:32 1 15,340,000 BOOK, BUILDNG, DUST, PAPER rplanetdevil
26th July 2021 18:49:49 1 550,000 EARTH, LAVA, VULCANO, WATER smcbm.wam
26th July 2021 18:38:19 1 16,210,000 BOOK, BUILDNG, GLASS, TREE 3jfrm.wam
26th July 2021 18:30:40 1 3,040,000 CRUDE, CRUDE, CRUDE, HEAT amauw.wam
26th July 2021 18:23:26 1 20,890,000 BOOK, BUILDNG, STOOL, TREE t5qb2.wam
26th July 2021 18:18:28 1 760,000 EARTH, EARTH, OCEAN, SKY eodr4.wam
26th July 2021 18:07:09 1 10,960,000 BATTERY, METAL, OIL, PLASTIC jtue2.wam
26th July 2021 17:54:49 2 520,000 EARTH, EARTH, VULCANO, WATER smcbm.wam
26th July 2021 17:53:07 1 2,800,000 EARTH, PICKAX, VULCANO, WATER smcbm.wam
26th July 2021 16:34:14 1 100,000 DUST, EARTH, GARBAGE, WATER juzfc.wam
26th July 2021 16:31:52 1 1,510,000 EARTH, MOSS, SEED, WATER s4leo.wam
26th July 2021 16:28:06 1 27,070,000 BUILDNG, MUSIC, TEQUILA, WHISKEY 4jube.wam
26th July 2021 16:08:13 1 5,470,000 EARTH, PLANT, RAIN, STRING bwob2.wam
26th July 2021 16:07:39 1 6,520,000 EARTH, RAIN, SEED, STRING bwob2.wam
26th July 2021 15:32:19 1 26,440,000 BOOK, BUILDNG, CALCLTR, PENCIL gnsba.wam
26th July 2021 14:38:28 1 970,000 COAL, EARTH, METAL, WATER rpiay.wam
26th July 2021 14:23:15 1 26,500,000 BOOK, BOOK, BUILDNG, STOOL mzgc4.wam
26th July 2021 14:18:59 1 16,090,000 BOOK, BUILDNG, PAPER, TREE otydy.wam
26th July 2021 14:14:47 2 70,000 AIR, FIRE, FIRE, LAVA tonyqrastafa
26th July 2021 14:12:34 1 6,220,000 HILL, SEED, TREE, WIRE bhwqy.wam
26th July 2021 14:10:38 1 4,900,000 DESERT, HORIZON, MNTAIN, OCEAN lkeb2.wam
26th July 2021 13:59:45 1 3,490,000 ATMSPHE, DESERT, MNTAIN, OCEAN lkeb2.wam
26th July 2021 13:54:57 1 16,510,000 BOOK, BUILDNG, TREE, TREE otydy.wam
26th July 2021 13:51:33 196 40,000 AIR, AIR, AIR, AIR thsru.wam
26th July 2021 13:49:42 7 310,000 AIR, ATMSPHE, STEAM, WIND nycticebus21
While I try my best to keep the list as accurate as possible it is possible that it misses a recipe. Indexing of this list started on the 15th July 2021. Last Update: 27th July 2021 21:15:00 UTC
Powered by rplanet.dev / Developed by wehmoen#0001